Hlavní strana
METAR-TAF:

METAR-TAF

Letiště :

Morganton, Severní Karolína, Spojené státy americké

zeměpisná šířka: 35-49-17N, zeměpisná délka: 081-36-39W, výška: 387 m

Aktuální stav počasí

Zpráva byla vytvořena před 34 minutami, v 22:55 UTC
Západní vítr 10 kt s nárazy do 14 kt
Teplota 9°C
Vlhkost vzduchu 34%
Tlak 1016 hPa
Viditelnost: 16.1 km
Zataženo ve výšce 6000 ft

METAR: KMRN 262255Z AUTO 28010G14KT 10SM OVC060 09/M06 A2999 RMK AO2 T00911060

Čas: 18:29 (23:29 UTC)


TAF: chybějící

Stav a předpovědi počasí z více než 4 000 letišť (zprávy METAR a TAF).

Červené a žluté tečky na mapě představují dostupné meteorologické stanice.

Když kurzor umístíte na tečku, zobrazí se název stanice.

Pak kliknutím zobrazíte stav a předpověď počasí.

Chcete-li změnit mapu, kliknutím na zelené tlačítko se znaménkem +mapu přiblížíte, kliknutím na zelené tlačítko se znaménkem – mapu oddálíte a kliknutím na zelené šipky přejdete na sousední mapy.


METAR-TAF: